Sei sulla pagina 1di 11

GF Muretto di Alassio

Mountainbike
CLASSIFICA FEMMINILE / MASCHILE

Clt PETT ATLETA SEX DATA CAT (Clt) TEAM Tempi Scarto

1 1 CATTANEO JOHNNY Uomini 1981 EL (1) NAZIONALE ITALIANA 1h34:57.50


2 4 LONGO TONY Uomini 1984 EL (2) NAZIONALE ITALIANA 1h35:39.80 42.30
3 65 FAILLI FRANCESCO Uomini 1983 EL (3) NAZIONALE ITALIANA 1h37:41.50 2:44.00
4 5 MENSI DANIELE Uomini 1988 EL (4) NAZIONALE ITALIANA 1h37:45.30 2:47.80
5 9 RAGNOLI JURI Uomini 1988 EL (5) NAZIONALE ITALIANA 1h37:49.80 2:52.30
6 111 CASAGRANDE FRANCESCO Uomini 1970 M4 (1) ASD CICLI TADDEI 1h39:24.20 4:26.70
7 8 SARAI PIETRO Uomini 1990 EL (6) NAZIONALE ITALIANA 1h39:46.80 4:49.30
8 63 COMINELLI CRISTIAN Uomini 1988 EL (7) NAZIONALE ITALIANA 1h40:44.50 5:47.00
9 39 FUMAROLA DENIS Uomini 1994 EL (8) ASD SIXS BOSCARO 1h40:59.30 6:01.80
10 19 LAZZARONI OSCAR Uomini 1972 M4 (2) 2R BIKE STORE - ASD 1h41:00.30 6:02.80
11 3 LONGA MATTIA Uomini 1988 EL (9) NAZIONALE ITALIANA 1h41:05.50 6:08.00
12 62 CHIARINI RICCARDO Uomini 1984 EL (10) NAZIONALE ITALIANA 1h41:29.30 6:31.80
13 33 ARIAS CUERVO DIEGO ALFONSO Uomini 1988 EL (11) TEAM GIANT-LIV 1h41:46.70 6:49.20
14 71 REBAGLIATI MARCO Uomini 1990 EL (12) WILIER FORCE SQUADRA CORSE 1h42:07.00 7:09.50
15 85 SARAVALLE ALESSANDRO Uomini 1996 UN (1) SILMAX X-BIONIC RACING TEAM 1h42:15.50 7:18.00
16 32 LAMASTRA GIUSEPPE Uomini 1984 EL (13) SILMAX X-BIONIC RACING TEAM 1h42:16.00 7:18.50
17 73 VALDRIGHI STEFANO Uomini 1994 EL (14) SOUDAL LEECOUGAN MTB RACING TE 1h43:22.00 8:24.50
18 30 ARMANDO MATIAS Uomini 1992 EL (15) SILMAX X-BIONIC RACING TEAM 1h44:00.50 9:03.00
19 37 SETTI MATTIA Uomini 1994 EL (16) TEAM GIANT-LIV 1h45:31.20 10:33.70
20 35 CARATIDE ADRIANO Uomini 1993 EL (17) NAZIONALE ITALIANA 1h45:32.00 10:34.50
21 566 PANIZZA RICCARDO Uomini 1987 M1 (1) TEAM COMOBIKE ASD 1h45:33.20 10:35.70
22 6 RONCHI LUCA Uomini 1988 EL (18) NAZIONALE ITALIANA 1h45:40.20 10:42.70
23 7 TIBERI ANDREA Uomini 1985 EL (19) NAZIONALE ITALIANA 1h45:55.70 10:58.20
24 38 CLERICI DAVIDE Uomini 1994 EL (20) ASD SIXS BOSCARO 1h47:55.20 12:57.70
25 21 CINA ANDREA Uomini 1992 EL (21) VITTORIA-LEPONTIA RACING TEAM 1h48:47.00 13:49.50
25 18 ROSTAGNO LUCA Uomini 1987 EL (21) ASD SIXS BOSCARO 1h48:47.00 13:49.50
25 17 FERRERO SIMONE Uomini 1987 EL (21) ASD SIXS BOSCARO 1h48:47.00 13:49.50
28 777 RIVA ALBERTO Uomini 1981 M2 (1) PB CARBOBIKE O'CLOCK 1h49:52.50 14:55.00
29 84 PINATO DAVIDE Uomini 1996 UN (2) DOCEO TECHNOSPORT 1h50:01.00 15:03.50
30 20 VALENTE ALESSANDRO Uomini 1991 EL (24) VITTORIA-LEPONTIA RACING TEAM 1h50:03.00 15:05.50
31 66 FAVILLI ELIA Uomini 1989 EL (25) BIKE INNOVATION | FOCUS | PISS 1h50:13.70 15:16.20
32 23 MARTUCCI FRANCESCO Uomini 1974 EL (26) MAGICUNEO 1h50:20.20 15:22.70
33 11 ARESCA DAVIDE Uomini 1998 UN (3) DOCEO TECHNOSPORT 1h51:07.20 16:09.70
34 118 SIFFREDI ANDREA Uomini 1999 JU (1) ASD ANDORARACE 1h51:20.70 16:23.20
35 772 PIRAS MICHELE Uomini 1988 EMT (1) TEAM MARCHISIO BICI 1h52:33.50 17:36.00
36 317 PAVIOLO PAOLO Uomini 1975 M3 (1) SCOTT RACING TEAM 1h52:59.20 18:01.70
37 112 GUASCO MATTIA Uomini 2000 JU (2) BURN MTB PRO TEAM 1h53:45.00 18:47.50
38 77 FIORI FEDERICO Uomini 1998 UN (4) RDR ITALIA FACTORY TEAM 1h54:04.70 19:07.20
39 781 ROVERA LUCA Uomini 1973 M3 (2) WR COMPOSITI RACING ASD 1h54:54.50 19:57.00
40 184 FERRARIS ENRICO Uomini 1988 EMT (2) SCOTT SUMIN 1h54:55.00 19:57.50
41 700 GIULIANI MASSIMILIANO Uomini 1967 M5 (1) S.C. TRIANGOLO LARIANO ASD 1h55:25.50 20:28.00
42 123 VANNI TOMMASO Uomini 1986 M1 (2) ASD CICLI TADDEI 1h55:48.50 20:51.00
43 766 PASSAROTTO LUCA Uomini 1996 EMT (3) TEAM MARCHISIO BICI 1h55:55.50 20:58.00
44 116 MARCARELLI EUGENIO Uomini 1986 M1 (3) ALASSIO BIKE 1h56:26.20 21:28.70
45 87 TOSELLI GIACOMO Uomini 1998 UN (5) ASDTERRE DELLA GRANDA 1h56:31.50 21:34.00
46 42 LAPOSSE LORENZO Uomini 1991 EL (27) ASD SIXS BOSCARO 1h57:01.50 22:04.00
47 518 BOTTARINI JACOPO Uomini 1976 M3 (3) HR TEAM 1h57:02.00 22:04.50
48 405 BORRO MATTEO Uomini 1989 EMT (4) CICLISTICA OSPEDALETTI BICISPO 1h57:02.20 22:04.70
48 16 MICCA LORENZO Uomini 1998 UN (6) GIAI TEAM ASD 1h57:02.20 22:04.70
50 510 DINALE DAVIDE Uomini 1978 M2 (2) TEAM SPACEBIKES 1h57:02.40 22:04.90
51 44 LONGATO MARCO Uomini 1996 UN (7) ASD SIXS BOSCARO 1h57:18.20 22:20.70
52 169 ROSTAGNO ALESSANDRO Uomini 1978 M2 (3) ASD SIXS BOSCARO 1h57:30.50 22:33.00
53 79 FORNELLI BARDINA GIULIO Uomini 1998 UN (8) SCOTT SUMIN 1h57:45.00 22:47.50
54 769 PERONA MASSIMILIANO Uomini 1980 M2 (4) PEDALE LEINICESE SABBIONERE 1h58:17.20 23:19.70
55 750 MEROLA PASQUALE Uomini 1962 M6 (1) MAGICUNEO 1h58:22.70 23:25.20
56 768 PEIRANO MASSIMILIANO Uomini 1973 M3 (4) INDIPENDENTE 1h58:32.70 23:35.20
57 557 BERNASCONI LORENZO Uomini 1993 EMT (5) TEAM COMOBIKE ASD 1h58:46.00 23:48.50

26/03/2017 / Alassio (SV) Il 26/03/2017 alle 14:46 / Pagina 1/11


VolaSoftControlPdf
Vola Timing (www.vola.fr) / Msports Pro 2.09 www.Real-Time.it
GF Muretto di Alassio
Mountainbike
CLASSIFICA FEMMINILE / MASCHILE

Clt PETT ATLETA SEX DATA CAT (Clt) TEAM Tempi Scarto

58 760 PARODI ALFONSO Uomini 1968 M4 (3) PB CARBOBIKE O'CLOCK 1h59:18.00 24:20.50
59 70 POZZO MATTIA Uomini 1989 EL (28) SCOTT SUMIN 1h59:25.70 24:28.20
60 563 ROSSINI SAMUELE Uomini 1987 M1 (4) TEAM COMOBIKE ASD 1h59:26.50 24:29.00
61 12 POZZO MARCO Uomini 1996 UN (9) MAGICUNEO 1h59:39.70 24:42.20
62 82 MERLINO MARCELLO Uomini 1997 UN (10) D'AMICO UTENSILNORD 1h59:43.70 24:46.20
63 29 STABBIO MATTEO Uomini 1997 UN (11) RDR ITALIA FACTORY TEAM 1h59:48.50 24:51.00
64 67 GAMBARELLI SIMONE Uomini 1979 EL (29) TEAM GRIGIOCARBONIO-LA CA' DI 2h00:01.50 25:04.00
65 210 CUFFIA LUCA Uomini 1978 M2 (5) PEDALE LEYNICESE 2h00:03.50 25:06.00
66 27 ALBRITO DARIO Uomini 1995 UN (12) ROERO SPEED BIKE 2h00:11.20 25:13.70
67 22 ARDIZZONI ROMEO Uomini 1997 UN (13) VITTORIA-LEPONTIA RACING TEAM 2h00:23.50 25:26.00
68 55 STABBIO FEDERICO Uomini 2000 JU (3) RDR ITALIA FACTORY TEAM 2h00:30.00 25:32.50
69 732 DI MARIA DAVIDE Uomini 1986 M1 (5) ALASSIO BIKE 2h00:31.20 25:33.70
70 15 TALENTO MATTIA Uomini 1995 UN (14) GIAI TEAM ASD 2h00:44.20 25:46.70
71 621 MARIANI DAVIDE Uomini 1968 M4 (4) VITTORIA - LEPONTIA RACING TEA 2h01:06.70 26:09.20
72 309 MARCELLO ANDREA Uomini 1976 M3 (5) VITTORIA-LEPONTIA RACING TEAM 2h01:22.90 26:25.40
73 176 NOE' ALESSANDRO Uomini 1978 M2 (6) MAGICUNEO 2h01:23.70 26:26.20
74 174 REYNAUD FEDERICO Uomini 1988 EMT (6) BRIKE BIKE 2h01:27.70 26:30.20
75 208 BORGO CRISTIANO Uomini 1973 M3 (6) A.S. DILETTANTISTICA PEDALE LE 2h01:31.90 26:34.40
76 106 LECHNER EVA Donne 1985 DE (1) NAZIONALE ITALIANA 2h01:36.50 26:39.00
77 110 RABENSTEINER LISA Donne 1993 DE (2) NAZIONALE ITALIANA 2h01:37.20 26:39.70
78 103 FUMAGALLI MARA Donne 1987 DE (3) NAZIONALE ITALIANA 2h01:40.20 26:42.70
79 59 BELTRAMO DIEGO Uomini 1979 EL (30) FOCUS XC ITALY TEAM 2h01:42.20 26:44.70
80 145 BRUNO FABIO Uomini 1979 M2 (7) LOCCA TEAM 2h01:44.90 26:47.40
81 305 FILEPPO MARCO Uomini 1981 M2 (8) VITTORIA-LEPONTIA RACING TEAM 2h01:46.70 26:49.20
82 532 NEGRO IVAN Uomini 1982 M2 (9) ASD SIXS BOSCARO 2h01:47.70 26:50.20
83 743 LUCCARDINI CLAUDIO Uomini 1966 M5 (2) MX PROJECT 2h01:49.80 26:52.30
84 502 MARAN ALESSANDRO Uomini 1975 M3 (7) MAGICUNEO 2h01:54.40 26:56.90
85 265 FUMAGALLI ALESSANDRO Uomini 1985 M1 (6) CICOBIKES- DSB-NONSOLOFANGO 2h02:21.20 27:23.70
86 68 PESSE MICHAEL Uomini 1991 EL (31) SILMAX X-BIONIC RACING TEAM 2h02:38.70 27:41.20
87 206 MENEGHINI VALENTINO Uomini 1966 M5 (3) ASD SIXS BOSCARO 2h03:11.40 28:13.90
88 352 RUFFA LUCA Uomini 1970 M4 (5) MX PROJECT 2h03:22.90 28:25.40
89 397 LOIACONO STEFANO Uomini 1992 EMT (7) ASD SIXS BOSCARO 2h03:43.20 28:45.70
90 326 LUCIA CRISTIAN Uomini 1984 M1 (7) ASD SIXS BOSCARO 2h03:43.70 28:46.20
91 40 FUSCO ANTONIO Uomini 1995 UN (15) ASD SIXS BOSCARO 2h04:18.50 29:21.00
92 519 BRUNO MATTIA Uomini 1986 M1 (8) CSS CYCLING 2h04:29.70 29:32.20
93 108 NISI MARIA CRISTINA Donne 1985 DE (4) NAZIONALE ITALIANA 2h04:30.20 29:32.70
94 142 VIGLIONE PAOLO Uomini 1969 M4 (6) MAGICUNEO 2h04:30.50 29:33.00
95 96 ALMONTI ANDREA Uomini 1997 UN (16) BURN MTB PRO TEAM 2h04:33.70 29:36.20
96 130 NATTERO OTTAVIO Uomini 1968 M4 (7) BIKE INNOVATION | FOCUS | PISS 2h04:35.70 29:38.20
97 462 MAZZOTTA ALESSANDRO Uomini 1988 EMT (8) VAL SANGONE OUTDOOR ASD 2h04:37.40 29:39.90
98 78 FORESTA MANUEL Uomini 1996 UN (17) E-VOLUTION CITTA' DI VALENZA 2h04:41.70 29:44.20
99 787 TACCHINI UGO Uomini 1962 M6 (2) ASD BINDELLA 2h04:43.20 29:45.70
100 736 FERRANDO STEFANO Uomini 1975 M3 (8) U CYCLING TEAM 2h05:25.40 30:27.90
101 53 ZBERCEA SEBASTIAN DANIEL Uomini 1999 JU (4) GIAI TEAM ASD 2h05:47.70 30:50.20
102 148 FRANZOSI MASSIMO Uomini 1967 M5 (4) CUSATIBIKE RACING TEAM 2h06:17.70 31:20.20
103 101 CALVETTI SERENA Donne 1990 DE (5) NAZIONALE ITALIANA 2h06:28.20 31:30.70
104 463 MAZZOTTA ANDREA Uomini 1983 M1 (9) VAL SANGONE OUTDOOR ASD 2h06:28.90 31:31.40
105 734 DRACONE GIOVANNI Uomini 1982 M2 (10) VIGOR REDMOUNT - FREEDOM TO RI 2h07:00.70 32:03.20
106 379 CLAUSI ROBERTO Uomini 1989 EMT (9) LAIGUEGLIA PACAN BAGUTTI 2h07:26.20 32:28.70
107 310 VARNERO RAMON Uomini 1982 M2 (11) VITTORIA-LEPONTIA RACING TEAM 2h07:35.40 32:37.90
108 434 CANALI GIUSEPPE Uomini 1962 M6 (3) S.C. TRIANGOLO LARIANO ASD 2h07:37.90 32:40.40
109 50 MARGiAIA ALESSIO Uomini 1999 JU (5) GIAI TEAM ASD 2h07:43.20 32:45.70
110 129 FASOLIS COSTANZA Donne 1986 DE (6) NAZIONALE ITALIANA 2h07:50.70 32:53.20
111 515 APRUZZESE FRANCESCO Uomini 1977 M3 (9) ASD TNTEAM 2h08:24.70 33:27.20
112 509 BRUNO PAOLO Uomini 1973 M3 (10) ASD TN TEAM 2h08:25.70 33:28.20
112 211 MASCALI SILVIO JUNIOR Uomini 1981 M2 (12) A.S. DILETTANTISTICA PEDALE LE 2h08:25.70 33:28.20
114 737 FERRARI FABIO Uomini 1974 M3 (11) MOVIMENTOEVITA.COM 2h08:26.70 33:29.20
115 710 BODRERO IVO Uomini 1967 M5 (5) GS PASSATORE 2h08:27.00 33:29.50

26/03/2017 / Alassio (SV) Il 26/03/2017 alle 14:46 / Pagina 2/11


VolaSoftControlPdf
Vola Timing (www.vola.fr) / Msports Pro 2.09 www.Real-Time.it
GF Muretto di Alassio
Mountainbike
CLASSIFICA FEMMINILE / MASCHILE

Clt PETT ATLETA SEX DATA CAT (Clt) TEAM Tempi Scarto

116 755 MUSSOLIN ANDREA Uomini 1984 M1 (10) TEAM SPACEBIKES 2h08:28.90 33:31.40
117 321 BONGIOVANNI LORENZO Uomini 1973 M3 (12) MASTER TEAM ASD 2h08:32.40 33:34.90
118 319 CASOTTO LUCA Uomini 1972 M4 (8) BORTOLAMI AIR TEAM 2h08:32.90 33:35.40
119 177 CASALE DIEGO Uomini 1982 M2 (13) CIADIT CICLI SUMIN 2h08:36.20 33:38.70
120 465 MORANDI CARLO ALBERTO Uomini 1970 M4 (9) TEAM BIKE CENTER 2h08:49.40 33:51.90
121 221 RISICATO GAETANO Uomini 1979 M2 (14) PEDALE LEYNICESE 2h08:49.70 33:52.20
122 200 BOLLATI ETTORE Uomini 1966 M5 (6) MASTER TEAM ASD 2h08:53.40 33:55.90
123 52 TALENTO LORENZO Uomini 2000 JU (6) GIAI TEAM ASD 2h08:54.20 33:56.70
124 270 COLLA CELESTINO Uomini 1965 M5 (7) TEAM LOCCA 2h09:25.40 34:27.90
125 745 MALANO MASSIMILIANO Uomini 1975 M3 (13) GRANBIKE VELO CLUB 2h09:53.90 34:56.40
126 318 TORRACO MATTIA Uomini 1984 M1 (11) TEAM ADVENTURES 2h09:56.00 34:58.50
127 162 CONTI FRANCESCO Uomini 1984 M1 (12) VITTORIA CYCLING TEAM PED BIEL 2h10:12.90 35:15.40
128 408 VACCHINA ROBERTO Uomini 1968 M4 (10) TEAM CYCLO 2h11:08.20 36:10.70
129 406 TAVOLETTI SERAFINO Uomini 1976 M3 (14) TEAM MBIKE 2h11:09.40 36:11.90
130 721 CHIEREGATO ANDREA Uomini 1977 M3 (15) VITTORIA-LEPONTIA RACING TEAM 2h11:09.90 36:12.40
131 264 POLETTI BRIAN Uomini 1975 M3 (16) CICLOBIKERS DSD 2h11:11.40 36:13.90
132 175 SCALA IGOR Uomini 1983 M1 (13) MAGICUNEO 2h11:18.70 36:21.20
133 347 BOVIO LUCIO Uomini 1982 M2 (15) DARRA RACING TEAM ASD 2h11:24.70 36:27.20
134 328 MOLLO ALESSANDRO Uomini 1981 M2 (16) DGM1 RACING BIKE TEAM 2h11:24.90 36:27.40
135 297 TAINI MAURIZIO Uomini 1979 M2 (17) TEAM BIKE TARTAGGIA 2h11:26.40 36:28.90
136 128 RAVAIOLI GAIA Donne 1988 DE (7) BIKE GARAGE SPEEDWHEELSAVONA F 2h11:26.90 36:29.40
137 90 STROZZA GIUSEPPE Uomini 1980 M2 (18) LISSONE MTB ASD 2h11:46.40 36:48.90
138 602 MUSCATELLO GIANLUCA Uomini 1973 M3 (17) MASTER TEAM ASD 2h11:55.40 36:57.90
139 422 PASQUALOTTO PAOLO Uomini 1976 M3 (18) RDR ITALIA FACTORY TEAM 2h11:56.70 36:59.20
140 786 SIRIGU UGO Uomini 1966 M5 (8) RIVIERAOUTDOOR 2h11:59.70 37:02.20
141 216 GATTI MASSIMO Uomini 1963 M5 (9) A.S. DILETTANTISTICA PEDALE LE 2h12:03.70 37:06.20
142 138 SBERSE ANDREA Uomini 1985 M1 (14) RACING TEAM RIVE ROSSE 2h12:04.20 37:06.70
143 296 RIVOIRA PAOLO Uomini 1990 EMT (10) VAL SANGONE OUTDOOR ASD 2h12:05.70 37:08.20
144 623 GHERARDINI DANIELE Uomini 1973 M3 (19) BOUDAL LEE LOUGAN 2h12:06.40 37:08.90
145 346 COSENTINO FABIO Uomini 1998 EMT (11) DARRA RACING TEAM ASD 2h12:07.90 37:10.40
146 86 SIMONCINI SAMUELE Uomini 1998 UN (18) D'AMICO UTENSILNORD 2h12:31.40 37:33.90
147 104 GADDONI ELENA Donne 1980 DE (8) NAZIONALE ITALIANA 2h12:35.70 37:38.20
148 421 SOLAGNA MAURIZIO TARQUINIO Uomini 1966 M5 (10) WR COMPOSITI RACING ASD 2h12:38.20 37:40.70
149 166 BENETEL MARCO Uomini 1965 M5 (11) RACING TEAM RIVE ROSSE 2h12:39.90 37:42.40
150 257 DUMA PORONDI LAURENTIU Uomini 1983 M1 (15) A.S. DILETTANTISTICA PEDALE LE 2h12:47.90 37:50.40
151 74 CINA LUCA Uomini 1996 UN (19) RDR ITALIA FACTORY TEAM 2h13:41.90 38:44.40
152 117 VIARINO ALESSANDRO Uomini 1976 M3 (20) ALASSIO BIKE 2h13:58.20 39:00.70
153 757 NAZIONALE SIMONE Uomini 1986 M1 (16) TEAM CENTOXCENTOBICI 2h13:58.70 39:01.20
154 133 DE LUCA SAVERIO Uomini 1976 M3 (21) RACING TEAM RIVE ROSSE 2h14:01.20 39:03.70
155 726 DAVO' ROBERTO Uomini 1958 M6 (4) TEAM 99 MILANO SEZ.MTB 2h14:01.40 39:03.90
156 798 CARRUBBA MATTEO Uomini 1993 EMT (12) READY2RIDE 2h14:10.80 39:13.30
157 791 ZANOLLA GRAZIANO Uomini 1989 EMT (13) RACING TEAM RIVE ROSSE 2h14:20.40 39:22.90
158 220 CHIARA SIMONE Uomini 1982 M2 (19) PEDALE LEYNICESE 2h14:21.40 39:23.90
159 209 GOLIA ROCCO Uomini 1978 M2 (20) A.S. DILETTANTISTICA PEDALE LE 2h14:21.90 39:24.40
160 790 ZAMBARINO MARCO Uomini 1963 M5 (12) RIVIERAOUTDOOR 2h14:28.70 39:31.20
161 98 PEROTTO LUCA Uomini 2000 JU (7) SCOTT SUMIN 2h14:36.40 39:38.90
162 83 PASQUALETTO GIACOMO Uomini 1998 UN (20) SILMAX X-BIONIC RACING TEAM 2h16:12.40 41:14.90
163 152 CHERIN LUCA Uomini 1989 EMT (14) BIKE GARAGE SPEEDWHEELSAVONA F 2h16:13.40 41:15.90
164 388 LEONCINI LUCA Uomini 1972 M4 (11) PB CARBOBIKE O'CLOCK 2h16:17.80 41:20.30
165 376 BROSSA ALBERTO Uomini 1987 M1 (17) CUSATIBIKE RACING TEAM 2h17:05.90 42:08.40
166 202 PATRISSI MAURIZIO Uomini 1971 M4 (12) PIANEZZA RACETECH TEAM 2h17:12.20 42:14.70
167 48 GIRELLI ANDREA Uomini 2000 JU (8) RACING TEAM RIVE ROSSE 2h17:14.90 42:17.40
168 199 SURACI MARIO Uomini 1960 M6 (5) MASTER TEAM ASD 2h17:19.40 42:21.90
169 102 COLLOMB EMILIE Donne 1995 DE (9) RDR ITALIA FACTORY TEAM 2h17:26.70 42:29.20
170 389 VIANA SIMONE Uomini 1982 M2 (21) AMICI DI ARRO 2h17:55.40 42:57.90
171 738 GAGGINI STEFANO Uomini 1963 M5 (13) PB CARBOBIKE O'CLOCK 2h18:01.20 43:03.70
172 263 CHERIA SIMONE Uomini 1990 EMT (15) RACING TEAM RIVE ROSSE 2h18:07.90 43:10.40
173 261 ZAMBONI ANDREA Uomini 1961 M6 (6) TEAM RIDICOLOUS 2h18:08.70 43:11.20

26/03/2017 / Alassio (SV) Il 26/03/2017 alle 14:46 / Pagina 3/11


VolaSoftControlPdf
Vola Timing (www.vola.fr) / Msports Pro 2.09 www.Real-Time.it
GF Muretto di Alassio
Mountainbike
CLASSIFICA FEMMINILE / MASCHILE

Clt PETT ATLETA SEX DATA CAT (Clt) TEAM Tempi Scarto

174 536 SAPONE ALESSIO Uomini 1979 M2 (22) U.C. FINALBORGO 2h18:09.70 43:12.20
175 155 MOTTA MAURO Uomini 1967 M5 (14) SCOTT SUMIN 2h18:09.90 43:12.40
176 239 LONGOBARDI PELLEGRINO Uomini 1988 EMT (16) MAGICUNEO 2h18:10.90 43:13.40
177 381 ZAPPINO MARCO Uomini 1973 M3 (22) TECNOBIKE BRA 2h18:11.20 43:13.70
178 126 IVALDI CORRADO Uomini 1973 M3 (23) ASD ANDORARACE 2h18:12.20 43:14.70
179 387 SCIARRA MARCO Uomini 1971 M4 (13) BICISTORE CYCLING TEAM 2h18:12.90 43:15.40
180 204 ZUARINI ALBERTO Uomini 1975 M3 (24) ASD SIXS BOSCARO 2h18:27.70 43:30.20
181 333 CARLIN ADRIANO Uomini 1973 M3 (25) LOCCA TEAM 2h18:32.40 43:34.90
182 249 ALLASIA PAOLO Uomini 1964 M5 (15) ADORNO RACE TOOL 2h18:32.90 43:35.40
183 193 BEANI PAOLO Uomini 1956 M7 (1) MASTER TEAM ASD 2h19:18.20 44:20.70
184 235 COSTABELLO ANDREA Uomini 1992 EMT (17) BRIKE BIKE 2h19:34.90 44:37.40
185 740 INDELICATO MARIO Uomini 1963 M5 (16) BICI CAMOGLI GOLFO PARADISO 2h19:55.10 44:57.60
186 14 MANCUSO LUCA Uomini 1998 UN (21) GIAI TEAM ASD 2h19:59.40 45:01.90
187 717 CASANOVA ALBERTO Uomini 1978 M2 (23) ASD GS LOABIKERS 2h20:38.10 45:40.60
188 431 BELLORA MARCO Uomini 1989 EMT (18) Q RACING TEAM ASD 2h21:11.90 46:14.40
189 356 BARBONE MICHELANGELO Uomini 1970 M4 (14) BILLY TEAM ASD 2h21:14.60 46:17.10
190 268 PEROLIO STEFANO Uomini 1970 M4 (15) CICOBIKES- DSB-NONSOLOFANGO 2h21:15.90 46:18.40
191 124 PASTORE MARTA Donne 1991 DE (10) PB CARBOBIKE O'CLOCK 2h21:16.40 46:18.90
191 122 PIANA FEDERICA Donne 1996 DE (10) PB CARBOBIKE O'CLOCK 2h21:16.40 46:18.90
193 712 BRUZZONE CARLO Uomini 1981 M2 (24) PB CARBOBIKE O'CLOCK 2h21:17.90 46:20.40
194 195 MELCHIOR GABRIELE Uomini 1974 M3 (26) MASTER TEAM ASD 2h21:31.60 46:34.10
195 168 ANGARONI PAOLO Uomini 1962 M6 (7) MX PROJECT 2h21:35.90 46:38.40
196 237 PANERO ROBERTO Uomini 1970 M4 (16) SCOTT SUMIN 2h21:40.10 46:42.60
197 245 CIRILLO GIUSEPPE Uomini 1968 M4 (17) SCOTT SUMIN 2h21:40.90 46:43.40
198 171 DARRIGO DAVIDE Uomini 1972 M4 (18) TEAM GRANFONDO RACE SERVICE 2h22:11.10 47:13.60
199 36 LOSCALZO STEFANO Uomini 1996 UN (22) TEAM GIANT-LIV 2h22:18.10 47:20.60
200 330 LONGO ANTONIO Uomini 1980 M2 (25) IL CICLISTA 2h22:22.40 47:24.90
201 285 ERMELLINO ANDREA Uomini 1975 M3 (27) SPEED WHEEL SAVONA TEAM 2h22:26.40 47:28.90
202 443 COTRONEO DENIS Uomini 2h22:30.90 47:33.40
203 605 BIACUCCI ADREA Uomini 1977 M3 (28) TEAM MARCHISIO BICI 2h22:31.40 47:33.90
204 201 CASTELLI GIANNI Uomini 1982 M2 (26) PIANEZZA RACETECH TEAM 2h22:38.40 47:40.90
205 635 SPINELLO CLAUDIO Uomini 1963 M5 (17) BILLY TEAM ASD 2h22:42.10 47:44.60
206 341 DEMONTE PAOLO FEDERICO Uomini 1954 M7 (2) MX PROJECT 2h22:44.40 47:46.90
207 640 SABBIA CARLO Uomini 1972 M4 (19) GRANBIKE VELO CLUB ASD 2h22:46.90 47:49.40
208 493 VITANZA PIETRO Uomini 1988 EMT (19) ASD TEAM FUORI ONDA 2h22:47.10 47:49.60
209 250 VAUDANO ALESSANDRO Uomini 1977 M3 (29) RACING TEAM RIVE ROSSE 2h22:47.40 47:49.90
210 719 CAVALLO GIAMPIERO Uomini 1962 M6 (8) SILMAX X-BIONIC RACING TEAM 2h22:48.10 47:50.60
211 131 CHIODI DANIELE Uomini 1984 M1 (18) VITTORIA CYCLING TEAM PED BIEL 2h22:48.40 47:50.90
212 269 UGHETTI MASSIMO Uomini 1968 M4 (20) SCOTT SUMIN 2h22:52.90 47:55.40
213 306 PITSCHEIDER ENRICO Uomini 1964 M5 (18) VITTORIA-LEPONTIA RACING TEAM 2h22:56.90 47:59.40
214 355 BADINI RICCARDO Uomini 1971 M4 (21) RACING TEAM RIVE ROSSE 2h23:03.60 48:06.10
215 765 PASCHETTA FLAVIO Uomini 1974 M3 (30) VAL SANGONE OUTDOOR ASD 2h23:15.10 48:17.60
216 739 GRECO ROSARIO Uomini 1977 M3 (31) PIANEZZA RACETECH TEAM 2h23:31.60 48:34.10
217 729 DENTI ANDREA PABLO Uomini 1974 M3 (32) TEAM SPACEBIKES 2h24:05.90 49:08.40
217 458 LUNARDI CLAUDIO Uomini 1964 M5 (19) TEAM CENTOXCENTOBICI 2h24:05.90 49:08.40
219 354 BELLONE MARCO Uomini 1981 M2 (27) Q RACING TEAM ASD 2h24:08.40 49:10.90
220 241 DAMONE SERGIO Uomini 1983 M1 (19) PIANEZZA RACETECH TEAM 2h24:11.40 49:13.90
221 248 FOIS GIORGIO Uomini 1984 M1 (20) RACING TEAM RIVE ROSSE 2h24:13.90 49:16.40
222 501 FREGNANI SAURO Uomini 1975 M3 (33) BD FAST 2h24:21.90 49:24.40
223 742 LOCATELLI MARCO Uomini 1976 M3 (34) PMP RACING TEAM 2h24:22.10 49:24.60
224 393 PARPINEL ADAMASTOR Uomini 1977 M3 (35) BILLY TEAM ASD 2h24:22.90 49:25.40
225 113 BARMAVERAIN ELEONORE Donne 1998 DE (12) RDR ITALIA FACTORY TEAM 2h24:27.60 49:30.10
226 336 BIONDA DAVIDE Uomini 1969 M4 (22) IL CICLISTA 2h24:28.60 49:31.10
227 535 PONZIO ABRAMO Uomini 1968 M4 (23) PIANEZZA RACETECH TEAM 2h24:35.10 49:37.60
228 764 PARODI STEFANO Uomini 1992 EMT (20) PB CARBOBIKE O'CLOCK 2h24:39.10 49:41.60
229 754 MURACHELLI LORENZO Uomini 1983 M1 (21) TEAM SENZA SENSO ASD 2h24:41.90 49:44.40
230 95 FUREGATO DAVIDE Uomini 2000 JU (9) SCOTT SUMIN 2h24:58.60 50:01.10
231 773 POGGIO ENRICO Uomini 1993 EMT (21) PB CARBOBIKE O'CLOCK 2h24:58.90 50:01.40

26/03/2017 / Alassio (SV) Il 26/03/2017 alle 14:46 / Pagina 4/11


VolaSoftControlPdf
Vola Timing (www.vola.fr) / Msports Pro 2.09 www.Real-Time.it
GF Muretto di Alassio
Mountainbike
CLASSIFICA FEMMINILE / MASCHILE

Clt PETT ATLETA SEX DATA CAT (Clt) TEAM Tempi Scarto

232 172 FANGAZIO ALESSIO Uomini 1962 M6 (9) LESSONA BIKE TEAM 2h25:20.40 50:22.90
233 792 ZUPO GIUSEPPE Uomini 1972 M4 (24) BLU DI MARE - FIDIBC ASD 2h25:36.40 50:38.90
234 307 MANCIN MARCO Uomini 1978 M2 (28) VITTORIA-LEPONTIA RACING TEAM 2h25:37.80 50:40.30
235 115 MORONI EMANUELE Uomini 1999 JU (10) MTB INCREA BRUGHERIO ASD 2h25:39.00 50:41.50
236 92 CAMASSA GIOVANNI Uomini 1982 M2 (29) LISSONE MTB ASD 2h25:43.60 50:46.10
237 188 GARINO PIERPAOLO Uomini 1969 M4 (25) CERVASCHESE 98 2h25:46.10 50:48.60
238 569 FERRANDO FRANCESCO Uomini 1984 M1 (22) TEAM GOOD BIKE - SAVONA 2h25:51.10 50:53.60
239 46 RIZZI STEFANO Uomini 1997 UN (23) ASD SIXS BOSCARO 2h25:56.10 50:58.60
240 213 GAJ TRIPIANO CARLO Uomini 1964 M5 (20) A.S. DILETTANTISTICA PEDALE LE 2h25:56.60 50:59.10
241 652 CATALDO ROBERTO Uomini 1983 M1 (23) BIKE GARAGE SPEEDWHEELSAVONA F 2h26:06.60 51:09.10
242 192 RIZZI MASSIMO Uomini 1963 M5 (21) MASTER TEAM ASD 2h26:19.60 51:22.10
243 76 FERRERO ANDREA Uomini 1997 UN (24) ROERO SPEED BIKE 2h26:20.40 51:22.90
244 374 SUPPO FRANCESCO Uomini 1989 EMT (22) GRANBIKE VELO CLUB 2h26:26.40 51:28.90
245 485 SPANO SIMONE Uomini 1976 M3 (36) BIKE TEAM MANDELLO ASD 2h26:27.90 51:30.40
245 153 BADELLINO GIANFRANCO Uomini 1966 M5 (22) DGM1 RACING BIKE TEAM 2h26:27.90 51:30.40
247 45 PENNA MATTIA Uomini 1991 EL (32) ASD SIXS BOSCARO 2h26:30.60 51:33.10
248 100 ZUNINO ENRICO Uomini 1999 JU (11) TEAM MARCHISIO BICI 2h26:38.90 51:41.40
249 380 PASTORE SIMONE Uomini 1984 M1 (24) FONTANETTESE BIKE ADEVENTURES 2h26:44.90 51:47.40
249 274 SANDRINI CLAUDIO Uomini 1969 M4 (26) TEAM GRANFONDO - RACE SERVICE 2h26:44.90 51:47.40
251 105 GULINO NINA Donne 1988 DE (13) BIKE INNOVATION | FOCUS | PISS 2h26:53.60 51:56.10
252 99 SGOIFO MICHELE Uomini 2000 JU (12) TEAM CICLOTECA 2h26:54.10 51:56.60
253 165 GAY ANGELO Uomini 1977 M3 (37) TECNOBIKE BRA 2h26:54.60 51:57.10
254 481 RONCHI ROBERTO Uomini 1965 M5 (23) TEAM SPREAFICO VELO PLUS 2h26:56.10 51:58.60
255 223 AMADIO EZIO Uomini 1960 M6 (10) PEDALE LEYNICESE 2h26:57.60 52:00.10
256 349 REGIS ANDREA Uomini 1987 M1 (25) LOCCA TEAM 2h27:03.10 52:05.60
257 51 PESSANA SIMONE LORENZO Uomini 1999 JU (13) GIAI TEAM ASD 2h27:16.40 52:18.90
258 156 GIRELLI COSTANTINO Uomini 1966 M5 (24) RACING TEAM RIVE ROSSE 2h27:22.60 52:25.10
259 525 FLORINDI FRANCESCO Uomini 1984 M1 (26) PIANEZZA RACETECH TEAM 2h27:23.90 52:26.40
260 149 DEMARIE FABIO Uomini 1985 M1 (27) DOTTA TEAM RACE BIKE 2h27:37.40 52:39.90
261 224 AMADIO SILVIO Uomini 1960 M6 (11) PEDALE LEYNICESE 2h27:39.90 52:42.40
262 728 DEALTI STEFANO Uomini 1974 M3 (38) ASD BIKERS TEAM LIVELLATO 2h27:45.60 52:48.10
263 342 BATTELLI ANDREA DONATO Uomini 1978 M2 (30) TEAM GRANFONDO - RACE SERVICE 2h27:47.10 52:49.60
264 761 PARODI ANDREA Uomini 1965 M5 (25) PB CARBOBIKE O'CLOCK 2h27:52.60 52:55.10
265 229 GRIFFA GIANLUCA Uomini 1970 M4 (27) PEDALE LEYNICESE 2h28:21.40 53:23.90
266 650 SCHIAVO GIANLUCA Uomini 1968 M4 (28) BRIKE BIKE 2h28:25.40 53:27.90
267 599 IOBBI AMEDEO Uomini 1996 EMT (23) LESSONA BIKE TEAM 2h28:32.40 53:34.90
268 709 BOCCA FABRIZIO Uomini 1966 M5 (26) RACING TEAM RIVE ROSSE 2h28:35.90 53:38.40
269 143 ROSSO CLAUDIO Uomini 1969 M4 (29) ASD LA FENICE MTB 2h28:43.10 53:45.60
270 447 DELFINO GIUSEPPE Uomini 1969 M4 (30) SCOTT ALFO BIKE 2h28:50.40 53:52.90
271 207 DI TORO DARIO Uomini 1971 M4 (31) PIANEZZA RACETECH TEAM 2h28:54.90 53:57.40
272 600 DUO DAVIDE Uomini 1969 M4 (32) RACING TEAM RIVE ROSSE 2h29:00.60 54:03.10
273 385 MASTROMAURO FEDERICO Uomini 1987 M1 (28) RISTOROCYCLES TEAM 2h29:00.90 54:03.40
274 438 CASTELLI IVAN Uomini 1969 M4 (33) TEAM BIKE CENTER 2h29:01.10 54:03.60
275 303 ARRIGONI GIAN FRANCO Uomini 1965 M5 (27) RE BIKE TEQUAM 2h29:03.40 54:05.90
276 325 CARRARO FABRIZIO Uomini 1988 EMT (24) ANGRY WHEELS MTB 2h29:04.50 54:07.00
277 647 PELUFFO GIORGIO Uomini 1983 M1 (29) VELO CLUB 2h29:09.60 54:12.10
278 196 MARCHESE CARMELO Uomini 1967 M5 (28) MASTER TEAM ASD 2h29:10.40 54:12.90
279 186 VIETTO ANDREA Uomini 1978 M2 (31) FARIGLIANO I GAT ROSS 2h29:10.90 54:13.40
280 185 REVIGLIO PAOLO Uomini 1967 M5 (29) ALPINA BIKECAFE 2h29:23.60 54:26.10
281 214 BONESSA FEDERICO Uomini 1988 EMT (25) A.S. DILETTANTISTICA PEDALE LE 2h29:39.90 54:42.40
282 708 BOASSO GABRIELE Uomini 1981 M2 (32) MARCHISIO 2h29:42.90 54:45.40
283 367 COSTANTINI LUCA Uomini 1972 M4 (34) LOCCA TEAM 2h29:53.60 54:56.10
284 316 CLIVIO MARCO Uomini 1984 M1 (30) TEAM VIPER TICINO 2h30:04.10 55:06.60
285 706 BIANCIOTTO DEMIS Uomini 1979 M2 (33) TEAM SANTISYAK 2h30:20.10 55:22.60
286 744 MACCHIA SAMUELE Uomini 1998 EMT (26) ASD ANDORARACE 2h30:46.40 55:48.90
287 275 BORDINO GIANMASSIMO Uomini 1963 M5 (30) ROERO SPEED BIKE 2h32:13.80 57:16.30
288 718 CATALDO ROCCO Uomini 1988 EMT (27) TEAM CENTOXCENTOBICI 2h33:03.60 58:06.10
289 378 RUELLA WALTER Uomini 1976 M3 (39) ALBA BIKE TEAM 2h33:11.40 58:13.90

26/03/2017 / Alassio (SV) Il 26/03/2017 alle 14:46 / Pagina 5/11


VolaSoftControlPdf
Vola Timing (www.vola.fr) / Msports Pro 2.09 www.Real-Time.it
GF Muretto di Alassio
Mountainbike
CLASSIFICA FEMMINILE / MASCHILE

Clt PETT ATLETA SEX DATA CAT (Clt) TEAM Tempi Scarto

290 244 ROTTA MAURIZIO Uomini 1979 M2 (34) LESSONA BIKE TEAM 2h33:12.10 58:14.60
291 348 OLMI PAOLO Uomini 1975 M3 (40) DARRA RACING TEAM ASD 2h33:14.90 58:17.40
292 182 ARTUSIO DIEGO Uomini 1970 M4 (35) ROERO SPEED BIKE 2h33:26.10 58:28.60
293 404 RUSCONI CAZZULANI ENRICO Uomini 1960 M6 (12) CYCLING TEAM OLTREPO 2h33:34.10 58:36.60
294 351 BRESCIANI MIRKO Uomini 1993 EMT (28) PIANEZZA RACETECH TEAM 2h33:36.90 58:39.40
295 262 MARTINI MARCO Uomini 1966 M5 (31) SILMAX X-BIONIC RACING TEAM 2h33:37.40 58:39.90
295 246 BISCARO MASSIMO Uomini 1977 M3 (41) ASD LA FENICE MTB 2h33:37.40 58:39.90
297 212 MERLO SILVIO GIOVANNI Uomini 1964 M5 (32) A.S. DILETTANTISTICA PEDALE LE 2h33:52.80 58:55.30
298 644 PIANTATO MANLIO Uomini 1956 M7 (3) BICI CAMOGLI GOLFO PARADISO 2h33:57.40 58:59.90
299 611 AIME FLAVIO Uomini 1985 M1 (31) CSS CYCLING 2h34:03.90 59:06.40
300 280 BIANCO MIRCO Uomini 1959 M6 (13) DREAM TEAM 2h34:08.80 59:11.30
301 620 PIRALLA BARBARA Donne 1973 W2 (1) VITTORIA - LEPONTIA RACING TEA 2h34:30.80 59:33.30
302 146 BERTONI STEFANO Uomini 1964 M5 (33) ASD PASSATORE 2h34:31.10 59:33.60
303 198 AMBROSIO ROBERTO Uomini 1966 M5 (34) MASTER TEAM ASD 2h34:38.60 59:41.10
304 57 FRISON GIANLUCA Uomini 1999 JMT (1) PEDALE LEYNICESE 2h34:48.40 59:50.90
305 157 GIULIANO MAURIZIO Uomini 1977 M3 (42) TEAM CYCLO 2h34:58.10 1h00:00.60
306 226 CORTESE VINCENZO Uomini 1960 M6 (14) PEDALE LEYNICESE 2h35:08.10 1h00:10.60
307 89 ANDREELLO EMANUELE Uomini 1979 M2 (35) LISSONE MTB ASD 2h35:09.40 1h00:11.90
308 561 CARDETTI ALESSANDRO Uomini 1975 M3 (43) BRIKE BIKE 2h35:10.40 1h00:12.90
309 435 CANAPE DANIELE Uomini 1973 M3 (44) BICI CLUB 2000 2h35:10.90 1h00:13.40
310 432 BRILLO SERGIO Uomini 1961 M6 (15) TEAM BIKE CENTER 2h35:20.90 1h00:23.40
311 395 POCHETTINO SAMUELE Uomini 1996 EMT (29) PEDALE PAZZO TEAM 2h35:23.40 1h00:25.90
312 144 CATTANEO VALERIO Uomini 1970 M4 (36) ASD LA FENICE MTB 2h35:35.10 1h00:37.60
313 384 VASCHETTI ENRICO Uomini 1976 M3 (45) TECNOBIKE BRA 2h35:39.40 1h00:41.90
314 445 D'ARTIZIO FRANCO Uomini 1971 M4 (37) SPEED WHEEL SAVONA 2h36:02.90 1h01:05.40
315 459 MACRI PAOLO Uomini 1988 EMT (30) ASD FULVIA PAGLIUGHI CICLI 2h36:16.40 1h01:18.90
316 469 PEL DAVIDE Uomini 1976 M3 (46) ALPINA BIKECAFE 2h36:24.60 1h01:27.10
317 161 COLLA ANDREA Uomini 1991 EMT (31) MAGICUNEO 2h36:26.90 1h01:29.40
318 598 MARCANTONI MORENO Uomini 1970 M4 (38) ASD FULVIA PAGLIUGHI CICLI 2h36:29.40 1h01:31.90
319 364 BASALINI MARCO Uomini 1989 EMT (32) ASD Q-510 CYCLING TEAM 2h36:29.50 1h01:32.00
320 91 PONZONI GABRIELE Uomini 1985 M1 (32) LISSONE MTB ASD 2h36:30.40 1h01:32.90
321 345 LORUSSO RAFFAELE Uomini 1973 M3 (47) SEI SPORT 2h36:42.10 1h01:44.60
322 427 BALBONI ANDREA Uomini 1973 M3 (48) VIVO ASSOCIAZIONE SPORTIVA 2h36:45.60 1h01:48.10
323 616 BERTELLO ALFRDO Uomini 1974 M3 (49) TH TEAM 2h36:46.50 1h01:49.00
324 752 MINASSO FEDERICO Uomini 1987 M1 (33) BICICLANDO TEAM 2h36:53.60 1h01:56.10
325 541 BELLINO MARIO Uomini 1962 M6 (16) BILLY TEAM ASD 2h36:57.10 1h01:59.60
326 500 FRANCISCO ALESSANDRO Uomini 1970 M4 (39) SILMAX X-BIONIC RACING TEAM 2h37:00.60 1h02:03.10
327 339 DELPIANO FABRIZIO Uomini 1970 M4 (40) ROERO SPEED BIKE 2h37:04.90 1h02:07.40
328 528 LOMBARDI ENRICO Uomini 1961 M6 (17) ASD BIKERS CANELLI 2h37:07.60 1h02:10.10
329 597 VENZANO PIER PAOLO Uomini 1973 M3 (50) SPEEDWHEELTEAM SAVONA 2h37:09.40 1h02:11.90
330 649 ROSSI PIETRO Uomini 1987 M1 (34) ASD BIKERS TEAM LIVELLATO 2h37:14.90 1h02:17.40
331 725 DAGNINO FABIO Uomini 1977 M3 (51) TEAM SENZA SENSO ASD 2h37:17.10 1h02:19.60
332 455 GILLIO MEINA MAURIZIO Uomini 1982 M2 (36) ASD FULVIA PAGLIUGHI CICLI 2h37:28.60 1h02:31.10
333 559 BOLIS PIETRO Uomini 1984 M1 (35) TEAM SPACEBIKES 2h37:32.40 1h02:34.90
334 132 SEVERICO FLAVIO Uomini 1964 M5 (35) RACING TEAM RIVE ROSSE 2h37:40.60 1h02:43.10
335 121 FERRERO NICOLETTA Donne 1992 DE (14) ROERO SPEED BIKE 2h37:40.80 1h02:43.30
336 203 ROSA RENATO Uomini 1965 M5 (36) PIANEZZA RACETECH TEAM 2h37:46.80 1h02:49.30
337 396 TURINA DAVIDE Uomini 1971 M4 (41) BRIKE BIKE 2h37:50.10 1h02:52.60
338 639 MARINO ERIK Uomini 1987 M1 (36) GS PASSATORE 2h37:50.30 1h02:52.80
339 442 CORALLO ALESSANDRO Uomini 1973 M3 (52) CRAL LUIGI RUM COMPAGNIA UNICA 2h37:50.80 1h02:53.30
340 266 BARBERO RICCARDO Uomini 1969 M4 (42) OLEGGIO - BIKE MTB EXTR A 2h37:59.40 1h03:01.90
341 448 DI BARI RICCARDO Uomini 1986 M1 (37) BILLY TEAM ASD 2h38:01.10 1h03:03.60
342 225 ZUIN MASSIMO Uomini 1983 M1 (38) PEDALE LEYNICESE 2h38:01.40 1h03:03.90
343 625 BAUSANO ALESSANDRO Uomini 1990 EMT (33) ULTRA TEAM 2h38:12.80 1h03:15.30
344 702 BARBIERI LUCA Uomini 1976 M3 (53) GENOA BIKE VALLESTURA 2h38:14.80 1h03:17.30
345 770 PERPIGLIA PAOLO Uomini 1962 M6 (18) TEAM CENTOXCENTOBICI 2h38:18.40 1h03:20.90
346 403 MARGARIA NICOLO' Uomini 1991 EMT (34) VIGOR REDMOUNT - FREEDOM TO RI 2h38:23.60 1h03:26.10
347 284 CECCONI FRANCESCO Uomini 1976 M3 (54) ROERO BIKERS 2h38:31.80 1h03:34.30

26/03/2017 / Alassio (SV) Il 26/03/2017 alle 14:46 / Pagina 6/11


VolaSoftControlPdf
Vola Timing (www.vola.fr) / Msports Pro 2.09 www.Real-Time.it
GF Muretto di Alassio
Mountainbike
CLASSIFICA FEMMINILE / MASCHILE

Clt PETT ATLETA SEX DATA CAT (Clt) TEAM Tempi Scarto

348 252 ABBA' GIORDANO Uomini 1975 M3 (55) SCOTT SUMIN 2h38:35.10 1h03:37.60
349 375 QUASSOLO ANDREA Uomini 1974 M3 (56) ROERO SPEED BIKE 2h38:40.80 1h03:43.30
350 187 FERRERO GIOVANNI Uomini 1963 M5 (37) ROERO SPEED BIKE 2h39:06.80 1h04:09.30
351 125 COLOMBI SELENE Donne 1990 EWS (1) TEAM BIKE TRESCORE B. ASD 2h39:34.10 1h04:36.60
352 119 FRASISTI VALENTINA Donne 1992 DE (15) NAZIONALE ITALIANA 2h39:35.30 1h04:37.80
353 120 ABRIL RESTREPO LAURA VALENTINA Donne 1990 DE (16) BURN MTB PRO TEAM 2h39:49.40 1h04:51.90
354 478 RICCARDINI CLAUDIO Uomini 1964 M5 (38) U CYCLING TEAM 2h39:53.30 1h04:55.80
355 627 ANTENIONE IVAN Uomini 1978 M2 (37) GUIDI - ROSASBIKE ASD 2h39:55.10 1h04:57.60
356 28 DESTEFANIS DANILO Uomini 1995 UN (25) ROERO SPEED BIKE 2h40:11.10 1h05:13.60
357 615 GOSPARINI PIETRO Uomini 1956 M7 (4) GRUPPO BO 2h40:17.10 1h05:19.60
358 361 SPARAVENTI GIORGIO Uomini 1959 M6 (19) CICLOCENTRICO CLUB 2h40:17.80 1h05:20.30
359 499 DE BIAGGI LUCA Uomini 1977 M3 (57) ASD VELO VALSESIA VARALLO 2h40:26.10 1h05:28.60
360 762 PARODI EMANUELE Uomini 1969 M4 (43) TEAM CENTOXCENTOBICI 2h40:26.90 1h05:29.40
361 617 FERRO IVAN Uomini 1981 M2 (38) SPEEDY BIKE ASD 2h40:29.40 1h05:31.90
362 467 OBERTO FOLCO Uomini 1988 EMT (35) ASD FULVIA PAGLIUGHI CICLI 2h40:50.80 1h05:53.30
363 575 COSTA ANDREA Uomini 1966 M5 (39) CICLO TEAM CERATI 2h40:55.30 1h05:57.80
364 797 MELI NICOLETTA Donne 1978 W1 (1) SCOTT RACING TEAM 2h41:25.30 1h06:27.80
365 548 MATTEOLI ANDREA Uomini 1965 M5 (40) TEAM PROCYCLING PROMOTECH 2h41:29.10 1h06:31.60
366 612 TREVISANUTTO MAURIZIO Uomini 1969 M4 (44) DOTTA BIKE 2h42:17.10 1h07:19.60
367 767 PASTORINO PAOLO Uomini 1973 M3 (58) PB CARBOBIKE O'CLOCK 2h42:22.10 1h07:24.60
368 722 CORDONE MICHELE Uomini 1990 EMT (36) ASD ANDORARACE 2h42:31.80 1h07:34.30
369 788 TRON WELINGTON Uomini 1985 M1 (39) VAL SANGONE OUTDOOR ASD 2h42:36.10 1h07:38.60
370 320 MINOLETTI MORENO Uomini 1962 M6 (20) SMAV TEAM 2h42:39.30 1h07:41.80
371 337 GIOVANDO VALTER Uomini 1962 M6 (21) CICLI BONI RACING TEAM 2h42:42.80 1h07:45.30
372 10 PATRIS LUCA Uomini 1998 UN (26) LA BICICLETTERIA RACING TEAM 2h42:49.80 1h07:52.30
373 471 PERINI MICHELE Uomini 1974 M3 (59) TEAM MARCHISIO BICI 2h42:52.10 1h07:54.60
374 371 OTTONI ANDREA Uomini 1966 M5 (41) IRIDE CYCLING TEAM 2h42:53.30 1h07:55.80
375 173 CRAVERO SANDRO Uomini 1976 M3 (60) MAGICUNEO 2h42:54.30 1h07:56.80
376 430 BASINISI LUCA Uomini 1981 M2 (39) TEAM MTB LOMAZZO 2h42:59.80 1h08:02.30
377 163 ELETTRO MICHELE Uomini 1968 M4 (45) ASD LA FENICE MTB 2h43:09.30 1h08:11.80
378 490 TREVISANUTO STEFANO Uomini 1974 M3 (61) TEAM DOTTA BIKE 2h43:46.30 1h08:48.80
379 158 ACCIAI LUCA Uomini 1978 M2 (40) RACING TEAM RIVE ROSSE 2h43:46.80 1h08:49.30
380 282 ALESANDRIA ROBERTO Uomini 1980 M2 (41) 2h44:24.30 1h09:26.80
381 720 CHA ROBERTO Uomini 1976 M3 (62) CIRCOLO SPORTIVO ORTOVERO 2h44:30.30 1h09:32.80
382 636 RUZZA ANDREA Uomini 1983 M1 (40) BILLY TEAM A.S.D. 2h44:36.60 1h09:39.10
383 551 POLETTI ALESSANDRO Uomini 1973 M3 (63) FONTANETESE BIKE ADVENTURES 2h44:43.10 1h09:45.60
384 488 TITTONEL ANDREA Uomini 1985 M1 (41) CICLOCENTRICO CLUB 2h44:46.10 1h09:48.60
385 350 VITTONE PAOLO Uomini 1970 M4 (46) GS PASSATORE 2h44:47.80 1h09:50.30
386 461 MARCHESI MATTEO Uomini 1990 EMT (37) TEAM BIKE TRESCORE B. ASD 2h44:52.30 1h09:54.80
387 723 CREPALDI MANUEL Uomini 1979 M2 (42) HR TEAM 2h44:59.80 1h10:02.30
388 609 STOCCO CLAUDIO Uomini 1957 M7 (5) DIMA BIKE TEAM 2h45:17.10 1h10:19.60
389 727 DE VITO PIETRO Uomini 1969 M4 (47) BICI CAMOGLI GOLFO PARADISO 2h45:22.80 1h10:25.30
390 705 BEGHELLO GIANLUCA Uomini 1973 M3 (64) TEAM CENTOXCENTOBICI 2h45:27.30 1h10:29.80
390 494 ZAVOLI LUCA Uomini 1970 M4 (48) TEAM CENTOXCENTOBICI 2h45:27.30 1h10:29.80
392 194 VITALI MASSIMO Uomini 1971 M4 (49) MASTER TEAM ASD 2h45:44.80 1h10:47.30
393 234 TESTA CARLO Uomini 1960 M6 (22) PEDALE LEYNICESE 2h45:50.60 1h10:53.10
394 480 RIZZO FABRIZIO Uomini 1967 M5 (42) ASD SCUOLA MTB VENARIA REALE 2h45:50.80 1h10:53.30
395 633 GARNERONE FAUSTO Uomini 1977 M3 (65) ALL BIKES MANTA 2h46:00.80 1h11:03.30
396 632 MICHELIS MARCO Uomini 1972 M4 (50) GS PASSATORE 2h46:04.80 1h11:07.30
397 661 GHIGLIONE NICOLA Uomini 1971 M4 (51) BIKEVO MOBILI CASACCIA 2h46:05.10 1h11:07.60
398 302 MARTIN DAVIDE Uomini 1997 EMT (38) VAL SANGONE OUTDOOR ASD 2h46:15.30 1h11:17.80
399 524 FEA PAOLO 2h46:16.30 1h11:18.80
400 255 CUFFARI CRISTIAN Uomini 1981 M2 (43) TEAM SANTYSIAK 2h46:27.60 1h11:30.10
401 659 MADAIO CHRISTIAN Uomini 1982 M2 (44) LA FENICE MTB 2h46:30.30 1h11:32.80
402 331 CORDERO LUCA Uomini 1976 M3 (66) ROERO SPEED BIKE 2h46:41.80 1h11:44.30
403 271 ERMELLINO PAOLO Uomini 1969 M4 (52) SPEED WHEEL SAVONA TEAM 2h46:57.80 1h12:00.30
404 259 CIANCETTA ENRICO Uomini 1962 M6 (23) TEAM CYCLO 2h47:04.30 1h12:06.80
405 643 FENOGLIO FABIO Uomini 1980 M2 (45) AS FIDAS MONREGALESE 2h47:11.80 1h12:14.30

26/03/2017 / Alassio (SV) Il 26/03/2017 alle 14:46 / Pagina 7/11


VolaSoftControlPdf
Vola Timing (www.vola.fr) / Msports Pro 2.09 www.Real-Time.it
GF Muretto di Alassio
Mountainbike
CLASSIFICA FEMMINILE / MASCHILE

Clt PETT ATLETA SEX DATA CAT (Clt) TEAM Tempi Scarto

406 247 MONGRANDI ALBERTO Uomini 1975 M3 (67) RACING TEAM RIVE ROSSE 2h47:28.60 1h12:31.10
407 230 FRISON GIACOMO Uomini 1997 EMT (39) PEDALE LEYNICESE 2h48:06.30 1h13:08.80
408 327 PAGGIO VITTORIO Uomini 1973 M3 (68) ANGRY WHEELS MTB 2h48:56.30 1h13:58.80
409 238 SCARPONI VALTER Uomini 1963 M5 (43) 2h48:56.80 1h13:59.30
410 386 ULANO PIO Uomini 1958 M6 (24) BIKE TEAM 94 FOSSANO 2h49:12.80 1h14:15.30
411 756 NAPOLETANO GIUSEPPE Uomini 1963 M5 (44) BICI CAMOGLI GOLFO PARADISO 2h49:16.10 1h14:18.60
412 796 MENSA SERENA Donne 1989 EWS (2) HR BORTOLAMI TEAM 2h49:37.60 1h14:40.10
413 372 NAVONE ROBERTO Uomini 1966 M5 (45) ALPINA BIKECAFE 2h50:00.30 1h15:02.80
414 439 CATALANO ANDREA Uomini 1975 M3 (69) TRACCE TEAM 2h50:01.60 1h15:04.10
415 191 DELPONTE MATTEO Uomini 1980 M2 (46) SPEEDY BIKE ASD 2h50:17.10 1h15:19.60
416 291 MOZZONE PIERGIORGIO Uomini 1970 M4 (53) MASTER TEAM ASD 2h50:22.00 1h15:24.50
417 429 BASANISI FABIO Uomini 1986 M1 (42) TEAM MTB LOMAZZO 2h50:24.10 1h15:26.60
418 335 CARAMASCHI CARLO Uomini 1962 M6 (25) HR TEAM 2h50:24.30 1h15:26.80
419 334 TAMOLLI PAOLO Uomini 1982 M2 (47) TEAM VIPER TICINO 2h50:42.80 1h15:45.30
420 440 CINQUINO STEFANO Uomini 1984 M1 (43) ASD TEAM FUORI ONDA 2h50:43.10 1h15:45.60
421 150 RECCHI RICCARDO Uomini 1973 M3 (70) CUSATI BIKE RACING TEAM 2h50:46.80 1h15:49.30
422 495 ZOTTI MICHELE Uomini 1966 M5 (46) TEAM VISCARDI ASD 2h51:01.60 1h16:04.10
423 573 ANDREOLI UMBERTO Uomini 1990 EMT (40) ALPINA-BIKECAFE 2h51:04.10 1h16:06.60
424 544 DONDERO IVAN Uomini 1982 M2 (48) GENOA BIKE VALLESTURA 2h51:11.10 1h16:13.60
425 399 TERRACCIANO SABATO Uomini 1957 M7 (6) SILMAX X-BIONIC RACING TEAM 2h51:18.10 1h16:20.60
426 656 MARITANO PAOLO Uomini 1971 M4 (54) BRIKE BIKE 2h51:34.80 1h16:37.30
427 311 ALLOVIO PIER GIUSEPPE Uomini 1966 M5 (47) PEDALE LEYNICESE 2h51:37.80 1h16:40.30
428 273 BARBERIS MAURIZIO Uomini 1957 M7 (7) SCOTT SUMIN 2h51:39.10 1h16:41.60
429 231 DELSANT GIOVANNI Uomini 1966 M5 (48) ASD MAD WHEELS 2h51:41.10 1h16:43.60
430 402 SERENO FABIO Uomini 1975 M3 (71) ANGRY WHEELS MTB 2h51:42.50 1h16:45.00
431 651 ANSELMO NATALE Uomini 1967 M5 (49) CICLI FULVIA PAGLIUGHI 2h51:47.30 1h16:49.80
432 580 NOTARIO LUCA Uomini 1971 M4 (55) ALPINA-BIKECAFE 2h51:52.30 1h16:54.80
433 711 BOSCHERO BRUNO Uomini 1953 M7 (8) VIGOR REDMOUNT - FREEDOM TO RI 2h52:09.60 1h17:12.10
434 287 AUGUSTI ANGELO Uomini 1966 M5 (50) MASTER TEAM ASD 2h52:10.60 1h17:13.10
435 648 fFIA FABRIZIO Uomini 1970 M4 (56) I GAT ROSS 2h52:12.10 1h17:14.60
435 603 ROSSI FEDERICO Uomini 1964 M5 (51) EQUILIBRIO URBANO MILANO A.S.D 2h52:12.10 1h17:14.60
437 517 BASSI NICOLA Uomini 1971 M4 (57) ASD LA FENICE MTB 2h52:20.80 1h17:23.30
438 506 ATRAMENTO MASSIMILIANO Uomini 1968 M4 (58) GENOA BIKE VALLESTURA 2h52:22.30 1h17:24.80
439 555 TARDIVO ILARIO 2h52:22.60 1h17:25.10
440 369 PASQUALI ALESSIO Uomini 1990 EMT (41) ASD SCUOLA MTB VENARIA REALE 2h52:32.60 1h17:35.10
441 373 LEONE IVANO Uomini 1969 M4 (59) ASD SCUOLA MTB VENARIA REALE 2h52:55.60 1h17:58.10
441 324 COSENTINO STEFANO Uomini 1967 M5 (52) ANGRY WHEELS MTB 2h52:55.60 1h17:58.10
443 366 GIANOTTI MATTIA Uomini 1992 EMT (42) AUDAX BIKE CARMAGNOLA 2h53:06.10 1h18:08.60
444 444 CREPALDI ERMANNO Uomini 1961 M6 (26) TEAM GIANT/LIV BICISPORT 2h53:07.80 1h18:10.30
445 159 BELLOTTI ENRICO Uomini 1968 M4 (60) ASD LA FENICE MTB 2h53:09.00 1h18:11.50
446 227 MASSA DANILO Uomini 1960 M6 (27) PEDALE LEYNICESE 2h53:09.30 1h18:11.80
447 276 MARINO MICHELE Uomini 1979 M2 (49) PIANEZZA RACETECH TEAM 2h53:16.80 1h18:19.30
448 564 FRATE GIORGIO Uomini 1969 M4 (61) GRUPPO BO 2h53:19.30 1h18:21.80
449 251 TESAURO VINCENZO Uomini 1970 M4 (62) CUSATI BIKE RACING TEAM 2h53:31.60 1h18:34.10
450 577 FERRARA TOMMASO Uomini 1967 M5 (53) BIKERS TEAM 2h53:31.80 1h18:34.30
451 49 BORSELLO LUCA Uomini 2000 JU (14) TEAM CICLOTECA 2h53:34.10 1h18:36.60
452 107 MENDITTO MARTA Donne 1999 DJ (1) GRUPPO NULLI ISEO MTB A.S.D 2h53:36.30 1h18:38.80
453 228 FOSSATELLI LUCA Uomini 1964 M5 (54) PEDALE LEYNICESE 2h53:48.10 1h18:50.60
454 671 CUSATI MARCO Uomini 1983 M1 (44) CUSATI BIKE RACING TEAM 2h53:50.80 1h18:53.30
455 667 MELIA PAOLO Uomini 1990 EMT (43) DREAM TEAM 2h53:58.10 1h19:00.60
455 359 B NICOLA Uomini 1972 M4 (63) RS BIKE 2h53:58.10 1h19:00.60
457 758 OLIVA RENZO Uomini 1966 M5 (55) TEAM CENTOXCENTO 2h54:04.60 1h19:07.10
458 289 IMBRIACO GIUSEPPE Uomini 1976 M3 (72) MASTER TEAM ASD 2h54:09.10 1h19:11.60
459 323 BIANCHI CRISTIAN Uomini 1971 M4 (64) ANGRY WHEELS MTB 2h54:15.50 1h19:18.00
460 475 PISANU GIUSEPPE Uomini 1975 M3 (73) DIMA BIKE TEAM 2h54:24.60 1h19:27.10
461 109 NOVIKOVA OLENA Donne 1984 DE (17) GIUSTA PRO RECORDS 2h54:31.80 1h19:34.30
462 507 BENOZZO FABRIZIO Uomini 1980 M2 (50) INDIPENDENTE 2h54:32.30 1h19:34.80
463 521 COSTA PINTO ALVES ANA ISABEL Donne 1983 W1 (2) FULVIA PAGLIUGHI 2h54:36.10 1h19:38.60

26/03/2017 / Alassio (SV) Il 26/03/2017 alle 14:46 / Pagina 8/11


VolaSoftControlPdf
Vola Timing (www.vola.fr) / Msports Pro 2.09 www.Real-Time.it
GF Muretto di Alassio
Mountainbike
CLASSIFICA FEMMINILE / MASCHILE

Clt PETT ATLETA SEX DATA CAT (Clt) TEAM Tempi Scarto

464 748 MASTROLIA MARIA ELENA Donne 1975 W2 (2) LA BICICLETTERIA RACING TEAM 2h54:49.80 1h19:52.30
465 703 BATTANI GIANNI Uomini 1956 M7 (9) ASD POLISPORTIVA CEDAS 2h54:54.30 1h19:56.80
466 424 AFFANNI MAURO Uomini 1978 M2 (51) CICLI LUCCHINI 2h55:20.80 1h20:23.30
467 704 BEATRICE ALESSIO Uomini 1985 M1 (45) RANCING TEAM LA BICI 2h55:29.60 1h20:32.10
468 531 MEYTRE ANDREA Uomini 1985 M1 (46) BRIKE BIKE 2h55:34.30 1h20:36.80
469 759 PARODI ALESSANDRO Uomini 1968 M4 (65) TEAM CENTOXCENTOBICI 2h55:38.30 1h20:40.80
470 645 ALACQUA GIORGIO Uomini 1967 M5 (56) BICI CAMOGLI GOLFO PARADISO 2h55:43.60 1h20:46.10
471 642 MARINI MARCO Uomini 1976 M3 (74) PB CARBOBIKE O'CLOCK 2h55:48.10 1h20:50.60
472 607 tonati mattia Uomini 1988 EMT (44) MTB LAGO MAGGIORE 2h55:51.10 1h20:53.60
473 776 RIBETTO DIEGO Uomini 1974 M3 (75) ALPINA-BIKECAFE 2h56:13.80 1h21:16.30
474 365 GIORDANO ANGELO Uomini 1962 M6 (28) GSR FERRERO 2h56:14.50 1h21:17.00
475 300 VIGLINO EDOARDO Uomini 1989 EMT (45) LA BICICLETTERIA RACING TEAM 2h56:31.80 1h21:34.30
476 482 ROSSI GIUSEPPE Uomini 1956 M6 (29) TEAM EQUA 2h56:35.80 1h21:38.30
477 662 SCALISE DOMENICO Uomini 1981 M2 (52) GENOA BIKE VALLESTURA 2h56:48.00 1h21:50.50
478 538 STURINI DAVIDE Uomini 1984 M1 (47) DARRA RACING TEAM ASD 2h57:04.00 1h22:06.50
479 58 ARNAUDO DAVIDE Uomini 1999 JMT (2) VIGOR REDMOUNT - FREEDOM TO RI 2h57:05.00 1h22:07.50
480 479 RIZZO ALBERTO Uomini 1960 M6 (30) BIKING TORINO ASD 2h57:13.50 1h22:16.00
481 783 SEGALERBA FABIO Uomini 1977 M3 (76) CRAL LUIGI RUM 2h57:18.50 1h22:21.00
482 619 SEGLIESIO PIERCARLO Uomini 1966 M5 (57) DREAM TEAM 2h57:26.60 1h22:29.10
483 583 PIROMALLI VALERIO Uomini 1984 M1 (48) BIKEVO MOBILI CASACCIA CYCLING 2h57:43.80 1h22:46.30
484 392 GIANOLIO ALBERTO Uomini 1975 M3 (77) TECNOBIKE BRA 2h57:44.80 1h22:47.30
485 205 MAGGIO GIORGIO Uomini 1960 M6 (31) MASTER TEAM ASD 2h57:46.30 1h22:48.80
486 560 BREUZA FABIO Uomini 1976 M3 (78) ALPINA-BIKECAFE 2h58:01.30 1h23:03.80
487 460 MAGLIANO MAURO Uomini 1963 M5 (58) GSR FERRERO 2h58:09.30 1h23:11.80
488 446 DEL PRATO ROBERTO Uomini 1979 M2 (53) 2R BIKE STORE - ASD 2h58:22.00 1h23:24.50
489 799 CARAMENTO STEFANO Uomini 1969 M4 (66) SCOTT SUMIN 2h58:22.30 1h23:24.80
490 312 DERIZZO ANDREA Uomini 1998 EMT (46) PEDALE LEYNICESE 2h58:43.80 1h23:46.30
490 181 BETTINSOLI ANDREA Uomini 1980 M2 (54) PEDALE LEYNICESE 2h58:43.80 1h23:46.30
492 453 GARETTO CRISTIAN Uomini 1975 M3 (79) ASD ACROLAND 2h58:51.30 1h23:53.80
493 529 MARINI GIORGIO Uomini 1974 M3 (80) ROERO SPEED BIKE 2h59:14.30 1h24:16.80
494 775 REPETTO MAURIZIO Uomini 1977 M3 (81) BIKEVO MOBILI CASACCIA 2h59:18.30 1h24:20.80
495 288 CASTELLETTI OTTAVIO Uomini 1972 M4 (67) MASTER TEAM ASD 2h59:33.50 1h24:36.00
496 426 ARTUDI MASSIMO Uomini 1969 M4 (68) BIKING TORINO ASD 3h00:08.00 1h25:10.50
497 601 PETRUCCI CORRADO Uomini 1965 M5 (59) ODDONE CICLI ASD 3h00:16.00 1h25:18.50
498 549 MAZZONI MARCO Uomini 1964 M5 (60) MTB OLEGGIO 3h00:16.80 1h25:19.30
499 520 CAMURATI MAURIZIO Uomini 1959 M6 (32) TEAM BIKE CENTER 3h00:17.00 1h25:19.50
500 646 CROCCO ALESSANDRO Uomini 1990 EMT (47) VELO CLUB OLMO 3h00:23.30 1h25:25.80
501 654 DELLA FERRERA MIRCO Uomini 1980 M2 (55) TEAM GIANT/LIV BICISPORT 3h02:40.80 1h27:43.30
502 668 SPINAGICO ROBERTO Uomini 1973 M3 (82) ANGRY WHEELS MTB 3h02:41.00 1h27:43.50
503 56 CIGALINI LORENZO Uomini 1999 JMT (3) PEDALE LEYNICESE 3h03:15.80 1h28:18.30
504 240 BALLINI MARCO Uomini 1970 M4 (69) 3h03:38.50 1h28:41.00
505 610 PERSIC DEAN Uomini 1960 M6 (33) ASD BIKE & SUN 3h03:40.50 1h28:43.00
506 546 LA TORRE GIOVANNI Uomini 1971 M4 (70) MTB OLEGGIO 3h04:18.50 1h29:21.00
507 290 LOIACONO ROBERTO Uomini 1965 M5 (61) MASTER TEAM ASD 3h04:18.80 1h29:21.30
508 579 MERCATELLI CARLO Uomini 1963 M5 (62) TEAM CENTOXCENTOBICI 3h04:26.50 1h29:29.00
509 663 BONDI LUCA Uomini 1972 M4 (71) RIVIERAOUTDOOR 3h04:27.50 1h29:30.00
510 398 COZLOVSCHI DANIEL Uomini 1979 M2 (56) ROERO BIKERS 3h04:28.00 1h29:30.50
511 382 AMBROSIO ALESSANDRO Uomini 1973 M3 (83) ROERO BIKERS 3h04:28.30 1h29:30.80
512 483 SANINO ANDREA Uomini 1980 M2 (57) CSS CYCLING 3h04:29.00 1h29:31.50
513 655 SEPULCRI MARCO Uomini 1965 M5 (63) EQUIPE SORBETTESE 3h04:30.30 1h29:32.80
514 665 AMEGLIO PAOLO Uomini 1968 M4 (72) RIVIERAOUTDOOR 3h04:37.30 1h29:39.80
515 474 PINTO VITO Uomini 1962 M6 (34) 3h04:38.00 1h29:40.50
516 167 LINTAS MICHELE Uomini 1971 M4 (73) VELO CLUB OLMO 3h05:03.50 1h30:06.00
517 137 CERULLI SIMONE Uomini 1978 M2 (58) US PONTEDECIMO 3h05:04.30 1h30:06.80
518 628 SCATTINA RAFFAELE Uomini 1975 M3 (84) DIMA BIKE TEAM 3h05:23.00 1h30:25.50
519 785 SINIGAGLIA DANIELE Uomini 1954 M6 (35) WILLIAM'S SPORT CLUB 3h05:25.50 1h30:28.00
520 498 FABRIS LINDA Donne 1989 EWS (3) ANGRY WHEELS MTB 3h05:28.50 1h30:31.00
521 487 TAGLIATI FABRIZIO Uomini 1964 M5 (64) BIKING TORINO ASD 3h05:29.80 1h30:32.30

26/03/2017 / Alassio (SV) Il 26/03/2017 alle 14:46 / Pagina 9/11


VolaSoftControlPdf
Vola Timing (www.vola.fr) / Msports Pro 2.09 www.Real-Time.it
GF Muretto di Alassio
Mountainbike
CLASSIFICA FEMMINILE / MASCHILE

Clt PETT ATLETA SEX DATA CAT (Clt) TEAM Tempi Scarto

522 400 PAGLIA CARLO Uomini 1958 M6 (36) ASD LA FENICE MTB 3h06:05.30 1h31:07.80
523 295 BELLIO EMANUELE LUIGI Uomini 1962 M6 (37) MASTER TEAM ASD 3h06:38.50 1h31:41.00
524 666 SORIGA MASSIMILIANO Uomini 1973 M3 (85) ANGRY WHEELS MTB 3h07:07.30 1h32:09.80
525 243 NARDIN MASSIMO Uomini 1958 M6 (38) ASD LA FENICE MTB 3h07:20.80 1h32:23.30
526 451 FRANCESCATO SAVERIO Uomini 1977 M3 (86) ASD FULVIA PAGLIUGHI CICLI 3h08:24.00 1h33:26.50
527 581 PEPINO ROBERTO Uomini 1965 M5 (65) BIKERS TEAM 3h09:40.50 1h34:43.00
528 523 CUTULI SERGIO Uomini 1959 M6 (39) PIANEZZA RACETECH TEAM 3h10:45.50 1h35:48.00
529 572 BERTON ELISA Donne 1991 EWS (4) SCOTT SUMIN 3h11:05.50 1h36:08.00
530 383 ARDISSONE MAURO Uomini 1958 M6 (40) MX PROJECT 3h11:23.80 1h36:26.30
531 746 MALINARICH CARLO Uomini 1983 M1 (49) CICLO TEAM CERATI ASD 3h12:16.00 1h37:18.50
532 527 LIETI GIUSEPPE Uomini M3 (87) ASD TNTEAM 3h12:21.30 1h37:23.80
533 526 LARIA MARCO Uomini 1977 M3 (88) DARRA RACING TEAM ASD 3h12:32.30 1h37:34.80
534 313 DIGILIO PIERO ANGELO Uomini 1963 M5 (66) A.S. DILETTANTISTICA PEDALE LE 3h12:33.00 1h37:35.50
535 457 INTORCIA DAVIDE Uomini 1975 M3 (89) CRAL GTT 3h12:33.30 1h37:35.80
536 338 PAOLUCCI GIULIANO Uomini 1966 M5 (67) DEDONATO ROAD RUUNERS 3h12:39.50 1h37:42.00
537 793 LOTTERIO MICHELA Donne 1970 W2 (3) RACING TEAM RIVE ROSSE 3h12:44.80 1h37:47.30
538 657 TERRANOVA DANIELE Uomini 1985 M1 (50) TEAM DANYMARK SANREMO 3h12:49.80 1h37:52.30
539 189 BESSONE EROS Uomini 1972 M4 (74) BRIKE BIKE 3h12:50.00 1h37:52.50
540 630 TITTONEL MARCO Uomini 1982 M2 (59) CICLOCENTRICO CLUB 3h12:50.30 1h37:52.80
541 377 PALLAVICINI FRANCO Uomini 1967 M5 (68) ASD LA FENICE MTB 3h13:03.00 1h38:05.50
542 782 RUFFA PAOLA Donne 1975 W2 (4) MX PROJECT 3h13:29.80 1h38:32.30
543 433 BROGGI MASSIMO Uomini 1970 M4 (75) EQUILIBRIO URBANO MILANO A.S.D 3h13:38.50 1h38:41.00
544 614 RAPELLA FRANCESCO Uomini 1957 M7 (10) GRUPPO BO 3h13:48.80 1h38:51.30
545 641 D'AMBROSIO ANTONELLO Uomini 1984 M1 (51) TEAM CYCLO 3h14:04.00 1h39:06.50
546 576 ERCOLESSI PAOLO Uomini 1982 M2 (60) SC. COTTUR ASD 3h14:50.50 1h39:53.00
547 511 GIORDANA CLAUDIO Uomini 1978 M2 (61) AICI DI CONFRERIA ASD 3h15:13.00 1h40:15.50
548 629 BASEGGIO ANDREA Uomini 1979 M2 (62) ANGRY WHEELS MTB 3h15:17.20 1h40:19.70
549 545 GRASSI MARCO Uomini 1968 M4 (76) MTB OLEGGIO 3h15:20.00 1h40:22.50
550 567 POLLIOT ANDREA Uomini 1978 M2 (63) GRANBIKE VELO CLUB 3h15:25.20 1h40:27.70
551 543 BOSCO GABRIELE Uomini 1984 M1 (52) CICLI GAI CHIERI 3h15:45.50 1h40:48.00
552 634 ALBERTO FRANCO Uomini 1977 M3 (90) ASD ANDORARACE 3h15:45.70 1h40:48.20
553 631 GENTA ENRICO Uomini 1973 M3 (91) INDIPENDENTE 3h15:47.50 1h40:50.00
554 449 DI BUONO GAETANO Uomini 1973 M3 (92) ASS. FUNTOS BIKE - NRC 3h16:48.20 1h41:50.70
555 669 NOVIKOV ROBERTO Uomini 1985 M1 (53) ANGRY WHEELS MTB 3h17:40.70 1h42:43.20
556 534 PIETROLEONARDO MARCO Uomini 1973 M3 (93) PIANEZZA RACETECH TEAM 3h17:42.70 1h42:45.20
557 496 SOLAGNA MANUEL Uomini 1992 EMT (48) WR COMPOSITI RACING ASD 3h17:45.80 1h42:48.30
558 47 REYNAUD ALBERTO Uomini 2000 JU (15) BRIKE BIKE 3h18:02.00 1h43:04.50
559 454 GHERSI LUCA Uomini 1980 M2 (64) TEAM GROSSO SPORT 3h18:23.70 1h43:26.20
560 286 ASEGLIO GIANINET TIZIANO Uomini 1960 M6 (41) MASTER TEAM ASD 3h18:37.50 1h43:40.00
561 293 VIOLA OTTAVIO Uomini 1961 M6 (42) MASTER TEAM ASD 3h18:44.00 1h43:46.50
562 292 TROTTA MATTEO Uomini 1968 M4 (77) MASTER TEAM ASD 3h19:01.00 1h44:03.50
563 197 MONTELEONE GIUSEPPE Uomini 1966 M5 (69) MASTER TEAM ASD 3h19:54.20 1h44:56.70
564 751 MILAN FRANCESCO Uomini 1960 M6 (43) TEAM CYCLO 3h20:04.20 1h45:06.70
565 256 CUSCELA LORENZO Uomini 1961 M6 (44) CEDAS FIAT TORINO 3h20:16.20 1h45:18.70
566 466 MORO MARCO Uomini 1961 M6 (45) ASD GIOVENZANO 3h20:57.70 1h46:00.20
567 713 BRUZZONE MASSIMO Uomini 1970 M4 (78) PB CARBOBIKE O'CLOCK 3h21:17.20 1h46:19.70
568 747 MARIOTTI AUGUSTO Uomini 1960 M6 (46) TEAM CINGHIALI MANNARI 3h22:04.20 1h47:06.70
569 473 PEZZONI ALESSIO Uomini 1970 M4 (79) DE RAN CLAB 3h22:17.50 1h47:20.00
569 456 REDAELLI JURI Uomini 1971 M4 (79) DE RAN CLAB 3h22:17.50 1h47:20.00
571 537 SCHIMIZZI GIUSEPPE Uomini 1958 M6 (47) TEAM CENTOXCENTOBICI 3h22:18.00 1h47:20.50
572 294 VISTARINI MAURO MAURIZIO Uomini 1955 M7 (11) MASTER TEAM ASD 3h22:19.00 1h47:21.50
573 514 RESEGA DIEGO Uomini 1981 M2 (65) CICLI 53 X 12 PEDALE SELVAGGIO 3h23:09.50 1h48:12.00
574 508 BOTTARI VINCENZO Uomini 1956 M7 (12) BILLY TEAM ASD 3h23:25.70 1h48:28.20
575 753 MOTTA MARCO Uomini 1980 M2 (66) BATTISTELLA CICLI MTB 3h24:10.20 1h49:12.70
576 423 LAZZARONI FEDERICA Donne 1971 W2 (5) MTB AGNOSINE ASD 3h24:31.50 1h49:34.00
577 540 ANDRINI ENRICO Uomini 1979 M2 (67) MTB AGNOSINE ASD 3h24:35.70 1h49:38.20
578 556 ZORZI ADRIANO Uomini 1969 M4 (81) MTB AGNOSINE ASD 3h24:36.50 1h49:39.00
579 701 BRONDI ALESSANDRO Uomini ELLEDI SPORT 3h25:01.50 1h50:04.00

26/03/2017 / Alassio (SV) Il 26/03/2017 alle 14:46 / Pagina 10/11


VolaSoftControlPdf
Vola Timing (www.vola.fr) / Msports Pro 2.09 www.Real-Time.it
GF Muretto di Alassio
Mountainbike
CLASSIFICA FEMMINILE / MASCHILE

Clt PETT ATLETA SEX DATA CAT (Clt) TEAM Tempi Scarto

580 464 MEDA ANDREA Uomini 1966 M5 (70) BIKING TORINO ASD 3h25:09.00 1h50:11.50
581 653 PANIGADA STEFANO Uomini 1964 M5 (71) EQUA 3h26:15.50 1h51:18.00
582 516 ARDEMAGNI CARLO Uomini 1966 M5 (72) TEAM EQUA 3h26:15.70 1h51:18.20
583 606 DE LICIO SAVINO Uomini 1965 M5 (73) INDIPENDENTE 3h26:38.20 1h51:40.70
584 552 QUAIA DAVIDE Uomini 1993 EMT (49) EQUILIBRIO URBANO MILANO A.S.D 3h26:39.20 1h51:41.70
585 714 CAMPORA ILARIO Uomini 1980 M2 (68) ASD BIKERS TEAM LIVELLATO 3h26:49.70 1h51:52.20
586 558 BISIO CLAUDIO Uomini 1967 M5 (74) ASD BIKERS TEAM LIVELLATO 3h26:50.00 1h51:52.50
587 763 PARODI FABIO Uomini 1985 M1 (54) ASD BIKERS TEAM LIVELLATO 3h26:50.20 1h51:52.70
588 749 MEIRANA FABIO Uomini 1989 EMT (50) PB CARBOBIKE O'CLOCK 3h26:50.50 1h51:53.00
589 571 ALSINO LUCIA Donne 1997 EWS (5) LESSONA BIKE TEAM 3h27:27.20 1h52:29.70
590 778 ROGGERO CLAUDIO Uomini 1957 M7 (13) RPBIKE TEAM 3h27:29.20 1h52:31.70
591 428 BARETTA PAOLO Uomini 1971 M4 (82) BIKERS TEAM 3h30:29.70 1h55:32.20
592 801 TORRERO / GIACOMETTO Uomini TA (1) 3h30:35.20 1h55:37.70
593 437 CARGNIN FLAVIO Uomini 1965 M5 (75) LIBERO COME IL VENTO 3h32:47.70 1h57:50.20
594 553 ROLANDI ALESSANDRO Uomini 1968 M4 (83) S.C. MOBILI LISSONE 3h36:09.40 2h01:11.90
595 533 PEREGO EMANUELE Uomini 1973 M3 (94) S.C. MOBILI LISSONE 3h36:10.20 2h01:12.70
596 340 PAMPOLINI ROBERTO Uomini 1971 M4 (84) BIKE GARAGE SPEEDWHEELSAVONA F 3h36:22.70 2h01:25.20
597 476 POLETTI ALESSANDRO Uomini 1983 M1 (55) GRUPPO CICLISTICO AVIS PAVIA 3h36:23.20 2h01:25.70
598 368 BORELLA MAURIZIO Uomini 1961 M6 (48) IRIDE CYCLING TEAM 3h39:02.50 2h04:05.00
599 491 VAUDAGNOTTI VITTORIO Uomini 1956 M7 (14) ASD EQUIPE CICLI CAPELLA 3h39:05.40 2h04:07.90
600 452 GAIAUDI FRANCESCO Uomini 1983 M1 (56) TEAM CENTOXCENTOBICI 3h39:46.20 2h04:48.70
601 800 MARINI / CANDELLONE Uomini TA (2) BILLY TEAM A.S.D. 3h39:56.70 2h04:59.20
602 441 ZANEBONI PAOLO Uomini 1973 M3 (95) FRANCESCONI 3h43:59.20 2h09:01.70
603 658 TENCA CARLO Uomini 1964 M5 (76) INDIPENDENTE 3h44:00.20 2h09:02.70
604 585 GREGUOLDO MARCO Uomini 1974 M3 (96) MTB SENSA FREN ASTI 3h46:24.40 2h11:26.90
605 267 SCARATTI MAURO Uomini 1956 M6 (49) CEDAS FIAT TORINO 3h47:19.40 2h12:21.90
606 281 MUSCATELLO GIUSEPPE Uomini 1958 M6 (50) ASD CEDAS FIAT 3h47:34.40 2h12:36.90
607 638 CICCHI GIORGIO Uomini 1945 M8 (1) SIRONE BIKE ASD 3h49:05.90 2h14:08.40
608 554 SQUILLANTE LUIGI MARIA Uomini 1970 M4 (85) BILLY TEAM ASD 3h49:34.20 2h14:36.70
609 586 SACCHELLI FRANCESCO Uomini 1984 M1 (57) ASD MTB I CINGHIALI 4h01:22.60 2h26:25.10
610 578 LO SCAVO DAVIDE Uomini 1982 M2 (69) ASD MTB I CINGHIALI 4h01:53.60 2h26:56.10
611 670 FRACCHETTA WALTER Uomini 1974 M3 (97) ASD MTB I CINGHIALI 4h01:54.40 2h26:56.90
612 618 FAURE ANDREA Uomini 1962 M6 (51) INDIPENDENTE 4h11:52.60 2h36:55.10
613 484 SPAGNOLI ROBERTO Uomini 1977 M3 (98) GRUPPO CICLISTICO AVIS PAVIA 4h13:08.10 2h38:10.60
614 582 PERINO GUIDO Uomini 1957 M6 (52) CICLI BONI RACING TEAM 4h14:03.30 2h39:05.80
615 486 SPEZZANO FRANCO Uomini 1974 M3 (99) CICLI BONI RACING TEAM 4h24:11.10 2h49:13.60
616 707 BILL PIETRO Uomini 1965 M5 (77) BATTISTELLA CICLI MTB 4h26:03.80 2h51:06.30
617 477 PARODI LAURA Donne 1969 W2 (6) ASD BIKERS TEAM LIVELLATO 4h26:04.60 2h51:07.10
618 660 GRANDE ROBERTO Uomini 1956 M7 (15) INDIPENDENTE 4h26:04.80 2h51:07.30

26/03/2017 / Alassio (SV) Il 26/03/2017 alle 14:46 / Pagina 11/11


VolaSoftControlPdf
Vola Timing (www.vola.fr) / Msports Pro 2.09 www.Real-Time.it